K9JVA Weather Reports


time (UTC)temp
C
wind
direction
speed
KPH
gust
KPH
rain 1hr
cm
rain 24hr
cm
rain mn
cm
humidity
%
barometer
mb
20260505041528 18 0.0 0.0 0.00 0.00 0.00 66 1006.2
20260505041030 18 0.0 0.0 0.00 0.00 0.00 67 1006.2
20260505040529 18 0.0 0.0 0.00 0.00 0.00 67 1006.2
20260505040029 18 0.0 0.0 0.00 0.00 0.00 65 1006.3
20260505035529 18 0.0 0.0 0.00 0.00 0.00 65 1006.4
20260505035031 18 0.0 0.0 0.00 0.00 0.00 65 1006.3
20260505034756 18 0.0 0.0 0.00 0.00 0.00 65 1006.3
20260505034512 18 0.0 0.0 0.00 0.00 0.00 65 1006.2
20260505033530 18 0.0 0.0 0.00 0.00 0.00 65 1006.3
20260505032930 18 0.0 0.0 0.00 0.00 0.00 64 1006.2
20260505032430 18 0.0 0.0 0.00 0.00 0.00 64 1006.2
20260505031931 18 0.0 0.0 0.00 0.00 0.00 64 1006.2
20260505031429 18 0.0 0.0 0.00 0.00 0.00 64 1006.1
20260505030932 18 0.0 0.0 0.00 0.00 0.00 64 1006.0
20260505030652 18 0.0 0.0 0.00 0.00 0.00 64 1006.0
20260505025930 18 0.0 0.0 0.00 0.00 0.00 64 1005.9
20260505025430 18 0.0 0.0 0.00 0.00 0.00 64 1005.8
20260505024930 18 0.0 0.0 0.00 0.00 0.00 64 1005.8
20260505024431 18 0.0 0.0 0.00 0.00 0.00 64 1005.7
20260505023831 18 0.0 0.0 0.00 0.00 0.00 64 1005.7
20260505023231 18 0.0 0.0 0.00 0.00 0.00 64 1005.6
20260505022731 18 0.0 0.0 0.00 0.00 0.00 64 1005.6
20260505022448 18 0.0 0.0 0.00 0.00 0.00 64 1005.6
20260505021731 19 0.0 0.0 0.00 0.00 0.00 64 1005.4
20260505021231 18 0.0 0.0 0.00 0.00 0.00 63 1005.4
20260505020731 19 0.0 0.0 0.00 0.00 0.00 63 1005.3
20260505020456 19 0.0 0.0 0.00 0.00 0.00 63 1005.2
20260505015732 19 0.0 0.0 0.00 0.00 0.00 63 1005.1
20260505015233 19 0.0 0.0 0.00 0.00 0.00 63 1005.1
20260505014851 19 0.0 0.0 0.00 0.00 0.00 62 1005.1
20260505014134 19 0.0 0.0 0.00 0.00 0.00 62 1005.1
20260505013632 20 0.0 0.0 0.00 0.00 0.00 62 1005.0
20260505013132 20 0.0 0.0 0.00 0.00 0.00 62 1004.9
20260505012632 20 0.0 0.0 0.00 0.00 0.00 61 1004.9
20260505012132 20 0.0 0.0 0.00 0.00 0.00 61 1004.8
20260505011634 20 0.0 0.0 0.00 0.00 0.00 61 1004.8
20260505011133 20 0.0 0.0 0.00 0.00 0.00 60 1004.9
20260505010849 20 0.0 0.0 0.00 0.00 0.00 60 1004.8
20260505010032 20 0.0 0.0 0.00 0.00 0.00 60 1004.8
20260505005534 20 0.0 0.0 0.00 0.00 0.00 58 1004.8
20260505004933 20 0.0 0.0 0.00 0.00 0.00 58 1004.7
20260505004433 21 0.0 0.0 0.00 0.00 0.00 57 1004.7
20260505003933 21 0.0 0.0 0.00 0.00 0.00 57 1004.7
20260505003434 21 0.0 0.0 0.00 0.00 0.00 57 1004.7
20260505002933 21 0.0 0.0 0.00 0.00 0.00 56 1004.7
20260505002433 21 0.0 0.0 0.00 0.00 0.00 55 1004.8
20260505001935 22 0.0 0.0 0.00 0.00 0.00 55 1004.7
20260505001434 22 0.0 0.0 0.00 0.00 0.00 54 1004.8
20260505000934 22 0.0 0.0 0.00 0.00 0.00 54 1004.9
20260505000334 22 0.0 0.0 0.00 0.00 0.00 53 1005.0
20260504235835 22 0.0 0.0 0.00 0.00 0.00 53 1005.1
20260504235817 22 0.0 0.0 0.00 0.00 0.00 51 1005.0
20260504234833 23 0.0 0.0 0.00 0.00 0.00 50 1005.2
20260504234334 23 0.0 0.0 0.00 0.00 0.00 50 1005.3
20260504233835 23 0.0 0.0 0.00 0.00 0.00 50 1005.4
20260504233334 23 0.0 0.0 0.00 0.00 0.00 50 1005.4
20260504232836 23 0.0 0.0 0.00 0.00 0.00 50 1005.3
20260504232335 23 0.0 0.0 0.00 0.00 0.00 50 1005.3
20260504231736 23 0.0 0.0 0.00 0.00 0.00 49 1005.4
20260504231135 23 0.0 0.0 0.00 0.00 0.00 50 1005.4
20260504230635 23 0.0 0.0 0.00 0.00 0.00 49 1005.4
20260504230137 23 0.0 0.0 0.00 0.00 0.00 49 1005.4
20260504225635 24 0.0 0.0 0.00 0.00 0.00 49 1005.5
20260504225331 24 0.0 0.0 0.00 0.00 0.00 49 1005.5
20260504224135 24 0.0 0.0 0.00 0.00 0.00 50 1005.5
20260504223637 23 0.0 0.0 0.00 0.00 0.00 50 1005.6
20260504223357 23 0.0 0.0 0.00 0.00 0.00 53 1005.6
20260504222855 23 0.0 0.0 0.00 0.00 0.00 54 1005.6
20260504222035 24 0.0 0.0 0.00 0.00 0.00 55 1005.5
20260504221659 24 0.0 0.0 0.00 0.00 0.00 54 1005.5
20260504220936 24 0.0 0.0 0.00 0.00 0.00 54 1005.5
20260504220436 24 0.0 0.0 0.00 0.00 0.00 54 1005.7
20260504220156 24 0.0 0.0 0.00 0.00 0.00 54 1005.9
20260504215436 24 0.0 0.0 0.00 0.00 0.00 53 1006.0
20260504214936 24 0.0 0.0 0.00 0.00 0.00 51 1006.1
20260504214437 24 0.0 0.0 0.00 0.00 0.00 51 1006.2
20260504213936 24 0.0 0.0 0.00 0.00 0.00 54 1006.1
20260504213436 24 0.0 0.0 0.00 0.00 0.00 51 1006.2
20260504213313 25 0.0 0.0 0.00 0.00 0.00 51 1006.2
20260504212337 25 0.0 0.0 0.00 0.00 0.00 51 1006.2
20260504211836 25 0.0 0.0 0.00 0.00 0.00 51 1006.3
20260504211337 25 0.0 0.0 0.00 0.00 0.00 53 1006.4
20260504211109 25 0.0 0.0 0.00 0.00 0.00 50 1006.5
20260504210337 25 0.0 0.0 0.00 0.00 0.00 51 1006.6
20260504205837 25 0.0 0.0 0.00 0.00 0.00 51 1006.6
20260504205338 25 0.0 0.0 0.00 0.00 0.00 51 1006.5
20260504204839 25 0.0 0.0 0.00 0.00 0.00 50 1006.5
20260504204337 26 0.0 0.0 0.00 0.00 0.00 50 1006.6
20260504203738 26 0.0 0.0 0.00 0.00 0.00 50 1006.9
20260504203238 25 0.0 0.0 0.00 0.00 0.00 51 1006.9
20260504202738 25 0.0 0.0 0.00 0.00 0.00 53 1006.9
20260504202239 25 0.0 0.0 0.00 0.00 0.00 50 1006.9
20260504201738 25 0.0 0.0 0.00 0.00 0.00 49 1007.0
20260504201239 26 0.0 0.0 0.00 0.00 0.00 50 1007.2
20260504201000 25 0.0 0.0 0.00 0.00 0.00 51 1007.1
20260504200240 25 0.0 0.0 0.00 0.00 0.00 50 1007.3
20260504195739 25 0.0 0.0 0.00 0.00 0.00 50 1007.4
20260504195138 25 0.0 0.0 0.00 0.00 0.00 49 1007.4
20260504194859 25 0.0 0.0 0.00 0.00 0.00 51 1007.7
20260504194138 25 0.0 0.0 0.00 0.00 0.00 53 1007.8
20260504193639 25 0.0 0.0 0.00 0.00 0.00 54 1008.0
20260504193404 24 0.0 0.0 0.00 0.00 0.00 56 1008.1
20260504192640 23 0.0 0.0 0.00 0.00 0.00 55 1008.1
20260504192139 23 0.0 0.0 0.00 0.00 0.00 56 1008.1
20260504191639 23 0.0 0.0 0.00 0.00 0.00 55 1008.2
20260504191139 23 0.0 0.0 0.00 0.00 0.00 56 1008.4
20260504190641 23 0.0 0.0 0.00 0.00 0.00 57 1008.5
20260504190140 22 0.0 0.0 0.00 0.00 0.00 60 1008.4
20260504185759 21 0.0 0.0 0.00 0.00 0.00 61 1008.6
20260504184942 21 0.0 0.0 0.00 0.00 0.00 61 1008.7
20260504184440 21 0.0 0.0 0.00 0.00 0.00 60 1008.7
20260504183940 21 0.0 0.0 0.00 0.00 0.00 58 1008.6
20260504183440 21 0.0 0.0 0.00 0.00 0.00 58 1008.6
20260504182940 22 0.0 0.0 0.00 0.00 0.00 58 1008.6
20260504182440 22 0.0 0.0 0.00 0.00 0.00 58 1008.4
20260504181941 22 0.0 0.0 0.00 0.00 0.00 57 1008.4
20260504181706 22 0.0 0.0 0.00 0.00 0.00 56 1008.3
20260504181201 22 0.0 0.0 0.00 0.00 0.00 57 1008.2
20260504180340 22 0.0 0.0 0.00 0.00 0.00 57 1008.0
20260504180111 22 0.0 0.0 0.00 0.00 0.00 55 1008.0
20260504175341 23 0.0 0.0 0.00 0.00 0.00 55 1007.9
20260504174841 23 0.0 0.0 0.00 0.00 0.00 58 1008.0
20260504174607 22 0.0 0.0 0.00 0.00 0.00 56 1007.9
20260504174112 22 0.0 0.0 0.00 0.00 0.00 56 1008.0
20260504173341 22 0.0 0.0 0.00 0.00 0.00 58 1008.1
20260504172841 21 0.0 0.0 0.00 0.00 0.00 58 1008.2
20260504172341 21 0.0 0.0 0.00 0.00 0.00 58 1008.2
20260504172008 21 0.0 0.0 0.00 0.00 0.00 60 1007.8
20260504171242 21 0.0 0.0 0.00 0.00 0.00 61 1007.0
20260504171007 21 0.0 0.0 0.00 0.00 0.00 61 1007.8
20260504170242 21 0.0 0.0 0.00 0.00 0.00 61 1008.2
20260504160143 20 0.0 0.0 0.00 0.00 0.00 58 1008.6
20260504151044 18 0.0 0.0 0.00 0.00 0.00 63 1008.9
20260504150545 17 0.0 0.0 0.00 0.00 0.00 67 1009.0
20260504140647 17 0.0 0.0 0.00 0.00 0.00 64 1009.0
20260504140146 16 0.0 0.0 0.00 0.00 0.00 64 1009.2
20260504130547 13 0.0 0.0 0.00 0.00 0.00 70 1009.5
20260504120248 11 0.0 0.0 0.00 0.00 0.00 70 1009.8
20260504110149 10 0.0 0.0 0.00 0.00 0.00 71 1009.5
20260504100450 10 0.0 0.0 0.00 0.00 0.00 70 1009.8
20260504081654 10 0.0 0.0 0.00 0.00 0.00 67 1010.4
20260504081152 10 0.0 0.0 0.00 0.00 0.00 67 1010.3
20260504080652 10 0.0 0.0 0.00 0.00 0.00 67 1010.4
20260504080152 10 0.0 0.0 0.00 0.00 0.00 67 1010.5
20260504050256 10 0.0 0.0 0.00 0.00 0.00 65 1012.0
20260504045756 11 0.0 0.0 0.00 0.00 0.00 64 1012.0
20260504045256 11 0.0 0.0 0.00 0.00 0.00 65 1012.0
20260504045021 10 0.0 0.0 0.00 0.00 0.00 65 1012.1
20260504044258 10 0.0 0.0 0.00 0.00 0.00 65 1012.1
20260504044241 10 0.0 0.0 0.00 0.00 0.00 65 1012.1
20260504043258 10 0.0 0.0 0.00 0.00 0.00 65 1012.1
20260504042756 10 0.0 0.0 0.00 0.00 0.00 65 1012.0
20260504042156 10 0.0 0.0 0.00 0.00 0.00 65 1012.1
20260504041918 10 0.0 0.0 0.00 0.00 0.00 65 1012.1